Location: New Canada
(47.1017°N, 68.5042°W)
Time: 22:48:02
(UTC+00:00)

RS-44 - Pass Details

Date: 08 April 2023
Orbit: 1175 x 1510 km, 82.5° (Epoch: 02 June)

Event Time Altitude Azimuth Distance (km) Brightness Sun altitude
Rises 04:36:41 0° 351° (N) 4,451 ? -35.8°
Reaches altitude 10° 04:39:30 10° 354° (N) 3,514 ? -35.8°
Maximum altitude 04:47:58 67° 77° (ENE) 1,577 ? -35.7°
Enters shadow 04:48:21 67° 92° (E) 1,586 ? -35.7°
